Miscellaneous Local Product
Issued by NWS Hastings, NE

Home | Current Version | Previous Version | Text Only | Print | Product List | Glossary Off
Versions: 1 2 3 4 5 6 7 8 9 10 11 12 13 14 15 16 17 18 19 20 21 22 23 24 25 26 27 28 29 30 31 32 33 34 35 36 37 38 39 40 41 42 43 44 45 46 47 48 49 50

000
AXUS43 KGID 041802
MISGRI

GID CWA HOURLY WEATHER ROUNDUP
NATIONAL WEATHER SERVICE HASTINGS NE
1200 PM CST WED MAR 04 2015

NOTE: "FAIR" INDICATES FEW OR NO CLOUDS BELOW 12,000 FEET WITH NO
SIGNIFICANT WEATHER AND/OR OBSTRUCTIONS TO VISIBILITY.

...SOUTH CENTRAL NEBRASKA...

CITY           SKY/WX    TMP DP  RH WIND       PRES   REMARKS
GRAND ISLAND   FAIR      26   8  46 NW20      30.29F WCI  12
HASTINGS       FAIR      24   8  50 NW17      30.28F WCI  11
KEARNEY        FAIR      23   7  50 NW13      30.29S WCI  11
ORD            MOSUNNY   26  -3  28 NW21G26   30.27S WCI  12
YORK           FAIR      25   9  50 NW22      30.28F WCI  10
AURORA         FAIR      26   9  49 NW16G24   30.29F WCI  13
LEXINGTON      SUNNY     24  13  63 W8        30.27F WCI  14
HOLDREGE       FAIR      23   8  53 NW12      30.28F WCI  11
HEBRON         FAIR      26  11  52 N12       30.33F WCI  16

...NEBRASKA PANHANDLE...

CITY           SKY/WX    TMP DP  RH WIND       PRES   REMARKS
CHADRON        CLOUDY    15   0  51 NW20G26   30.24S WCI  -2
ALLIANCE       SUNNY     20   2  45 N21G28    30.18S WCI   4
SCOTTSBLUFF    SUNNY     23   2  40 W21       30.19S WCI   8
SIDNEY         SUNNY     20   1  43 N14       30.18F WCI   7

...WESTERN AND NORTH CENTRAL NEBRASKA...

CITY           SKY/WX    TMP DP  RH WIND       PRES   REMARKS
VALENTINE      SUNNY     18   2  49 NW16G25   30.26F WCI   3
AINSWORTH      MOSUNNY   18  -1  43 NW17G23   30.26S WCI   2
ONEILL         SUNNY     20  -2  37 NW21      30.29F WCI   5
BROKEN BOW     SUNNY     25   2  37 NW13G24   30.25S WCI  14
IMPERIAL         N/A     23   5  46 NW12      30.24F WCI  12
NORTH PLATTE   MOSUNNY   26   3  37 NW21      30.25F WCI  12
MCCOOK         SUNNY     26  11  52 N6        30.29S WCI  19

...EASTERN NEBRASKA...

CITY           SKY/WX    TMP DP  RH WIND       PRES   REMARKS
NORFOLK        FAIR      24  -3  30 N25       30.28S WCI   8
SO SIOUX CITY  FAIR      24   2  38 NW23G31   30.29R WCI   9
TEKAMAH        FAIR      29   1  30 NW25G33   30.30R WCI  14
COLUMBUS       FAIR      28   0  29 NW21G31   30.30S WCI  15
ALBION         FAIR      24  -4  29 NW21G30   30.29R WCI  10
OMAHA EPPLEY   FAIR      31   2  29 NW20G28   30.28F WCI  19
OFFUTT AFB     FAIR      28   5  37 NW15G21   30.28F WCI  17
MILLARD        FAIR      29   7  39 NW13G22   30.29F WCI  19
LINCOLN        FAIR      28  11  48 N20       30.30F WCI  15
NEBRASKA CITY  FAIR      25   8  48 W6        30.31S WCI  18
BEATRICE       FAIR      26  12  55 NW15G23   30.30F WCI  14
FALLS CITY     MIX PCPN  27   4  37 NW10G23   30.32F WCI  17

...NORTHERN KANSAS...

CITY           SKY/WX    TMP DP  RH WIND       PRES   REMARKS
GOODLAND       MOSUNNY   22  10  60 N10       30.23S WCI  11
HILL CITY      FAIR      28   8  43 VRB7      30.32S WCI  21
NORTON         PTCLDY    25  10  54 NW8       30.29S WCI  16
PHILLIPSBURG   MOSUNNY   28  12  50 W10G16    30.34R WCI  19
SMITH CENTER   SUNNY     25  10  54 NW13      30.34S WCI  13
BELOIT         SUNNY     30   1  29 N12G23    30.33S WCI  21
HAYS           FAIR      28   7  40 N16       30.32S WCI  17
RUSSELL        FAIR      28   8  43 N13G21    30.31R WCI  17
CONCORDIA      FAIR      29   3  33 N13G22    30.34R WCI  19
SALINA         FAIR      32   4  30 N17G24    30.33R WCI  21
TOPEKA         FAIR      27   7  42 N13G22    30.34R WCI  16



USA.gov is the U.S. government's official web portal to all federal, state and local government web resources and services.